Weather History for Winchester, VA

Change the Weather History Date:

Saturday, January 4, 2014

  Actual Average Record
Temperature  
Mean Temperature 19 °F -  
Max Temperature 32 °F 43 °F 75 °F (1997)
Min Temperature 6 °F 27 °F 6 °F (2012)
Degree Days  
Heating Degree Days 46    
Moisture  
Dew Point 8 °F    
Average Humidity 59    
Maximum Humidity 85    
Minimum Humidity 40    
Precipitation  
Precipitation 0.00 in - - ()
Sea Level Pressure  
Sea Level Pressure 30.33 in    
Wind  
Wind Speed 3 mph (South)    
Max Wind Speed 10 mph    
Max Gust Speed -    
Visibility 10 miles    
Events      
Averages and records for this station are not official NWS values.
T = Trace of Precipitation, MM = Missing Value Source: NWS Daily Summary

Daily Weather History Graph

Daily Weather History Graph

Search for Another Location

Airport:

Trip Planner

Search our weather history database for the weather conditions in past years. The results will help you decide how hot, cold, wet, or windy it might be!

Date:

Astronomy

Jan. 04, 2014 Rise Set
Actual Time 7:32 AM EST 5:03 PM EST
Civil Twilight 7:02 AM EST 5:33 PM EST
Nautical Twilight 6:28 AM EST 6:06 PM EST
Astronomical Twilight 5:56 AM EST 6:38 PM EST
Moon 9:38 AM EST (1/4) 9:18 PM EST (1/4)
Length of Visible Light 10h 30m
Length of Day
9h 31m
Waxing Crescent, 15% of the Moon is Illuminated
Jan 4
Waxing Crescent
Jan 7
First Quarter
Jan 15
Full
Jan 24
Last Quarter
Jan 30
New

Hourly Weather History & Observations

Time (EST) Temp. Windchill Dew Point Humidity Pressure Visibility Wind Dir Wind Speed Gust Speed Precip Events Conditions
12:15 AM 8.6 °F - 1.4 °F 73% 30.42 in 10.0 mi Calm Calm - N/A   Clear
12:35 AM 8.6 °F - 3.2 °F 79% 30.42 in 10.0 mi Calm Calm - N/A   Clear
12:55 AM 8.6 °F - 3.2 °F 79% 30.43 in 10.0 mi Calm Calm - N/A   Clear
1:15 AM 10.4 °F - 3.2 °F 73% 30.43 in 10.0 mi Calm Calm - N/A   Clear
1:35 AM 10.4 °F - 3.2 °F 73% 30.42 in 10.0 mi Calm Calm - N/A   Clear
1:55 AM 8.6 °F - 1.4 °F 73% 30.42 in 10.0 mi Calm Calm - N/A   Clear
2:15 AM 8.6 °F - 3.2 °F 79% 30.42 in 10.0 mi Calm Calm - N/A   Clear
2:35 AM 6.8 °F - 3.2 °F 85% 30.42 in 10.0 mi Calm Calm - N/A   Clear
2:55 AM 6.8 °F - 3.2 °F 85% 30.42 in 10.0 mi Calm Calm - N/A   Clear
3:15 AM 6.8 °F -0.1 °F 3.2 °F 85% 30.41 in 10.0 mi South 3.5 mph - N/A   Clear
3:35 AM 8.6 °F 2.0 °F 3.2 °F 79% 30.41 in 10.0 mi SW 3.5 mph - N/A   Clear
3:55 AM 10.4 °F - 3.2 °F 73% 30.40 in 10.0 mi Calm Calm - N/A   Clear
4:15 AM 8.6 °F 2.0 °F 3.2 °F 79% 30.40 in 10.0 mi South 3.5 mph - N/A   Clear
4:35 AM 10.4 °F 4.0 °F 3.2 °F 73% 30.40 in 10.0 mi SSW 3.5 mph - N/A   Clear
4:55 AM 10.4 °F 4.0 °F 5.0 °F 79% 30.40 in 10.0 mi SW 3.5 mph - N/A   Clear
5:15 AM 10.4 °F - 3.2 °F 73% 30.41 in 10.0 mi Calm Calm - N/A   Clear
5:35 AM 10.4 °F - 3.2 °F 73% 30.41 in 10.0 mi Calm Calm - N/A   Clear
5:55 AM 6.8 °F - 3.2 °F 85% 30.41 in 10.0 mi Calm Calm - N/A   Clear
6:15 AM 6.8 °F - 3.2 °F 85% 30.41 in 10.0 mi Calm Calm - N/A   Clear
6:35 AM 8.6 °F - 3.2 °F 79% 30.41 in 10.0 mi Calm Calm - N/A   Clear
6:55 AM 8.6 °F - 3.2 °F 79% 30.41 in 10.0 mi Calm Calm - N/A   Clear
7:15 AM 8.6 °F - 3.2 °F 79% 30.42 in 10.0 mi Calm Calm - N/A   Clear
7:35 AM 10.4 °F 4.0 °F 5.0 °F 79% 30.42 in 10.0 mi SSW 3.5 mph - N/A   Clear
7:55 AM 12.2 °F - 3.2 °F 67% 30.42 in 10.0 mi Calm Calm - N/A   Clear
8:15 AM 12.2 °F 6.1 °F 5.0 °F 73% 30.42 in 10.0 mi SSW 3.5 mph - N/A   Clear
8:35 AM 14.0 °F 8.2 °F 5.0 °F 67% 30.42 in 10.0 mi SW 3.5 mph - N/A   Clear
8:55 AM 15.8 °F 10.2 °F 5.0 °F 62% 30.41 in 10.0 mi SSW 3.5 mph - N/A   Clear
9:15 AM 17.6 °F 10.7 °F 5.0 °F 58% 30.41 in 10.0 mi SSW 4.6 mph - N/A   Clear
9:35 AM 19.4 °F 11.5 °F 6.8 °F 58% 30.41 in 10.0 mi SSW 5.8 mph - N/A   Clear
9:55 AM 21.2 °F 13.6 °F 5.0 °F 50% 30.41 in 10.0 mi SSW 5.8 mph - N/A   Clear
10:15 AM 21.2 °F 14.9 °F 6.8 °F 54% 30.40 in 10.0 mi SSW 4.6 mph - N/A   Clear
10:35 AM 23.0 °F 17.0 °F 8.6 °F 54% 30.39 in 10.0 mi South 4.6 mph - N/A   Clear
10:55 AM 24.8 °F 17.9 °F 8.6 °F 50% 30.38 in 10.0 mi SSE 5.8 mph - N/A   Clear
11:15 AM 26.6 °F 18.2 °F 8.6 °F 47% 30.37 in 10.0 mi SSE 8.1 mph - N/A   Clear
11:35 AM 26.6 °F 19.1 °F 8.6 °F 47% 30.36 in 10.0 mi SSE 6.9 mph - N/A   Clear
11:55 AM 26.6 °F 21.2 °F 8.6 °F 47% 30.33 in 10.0 mi SSW 4.6 mph - N/A   Clear
12:15 PM 28.4 °F 23.3 °F 8.6 °F 43% 30.33 in 10.0 mi SSW 4.6 mph - N/A   Clear
12:35 PM 30.2 °F - 10.4 °F 44% 30.30 in 10.0 mi Calm Calm - N/A   Clear
12:55 PM 30.2 °F 24.3 °F 8.6 °F 40% 30.30 in 10.0 mi SSW 5.8 mph - N/A   Clear
1:15 PM 30.2 °F 24.3 °F 10.4 °F 44% 30.30 in 10.0 mi South 5.8 mph - N/A   Clear
1:35 PM 32.0 °F 25.6 °F 10.4 °F 41% 30.29 in 10.0 mi South 6.9 mph - N/A   Clear
1:55 PM 32.0 °F 24.2 °F 10.4 °F 41% 30.28 in 10.0 mi SSE 9.2 mph - N/A   Clear
2:15 PM 32.0 °F 25.6 °F 12.2 °F 44% 30.28 in 10.0 mi South 6.9 mph - N/A   Clear
2:35 PM 32.0 °F 24.8 °F 10.4 °F 41% 30.29 in 10.0 mi South 8.1 mph - N/A   Clear
2:55 PM 32.0 °F 24.8 °F 10.4 °F 41% 30.28 in 10.0 mi SSE 8.1 mph - N/A   Clear
3:15 PM 32.0 °F 24.8 °F 10.4 °F 41% 30.27 in 10.0 mi SSE 8.1 mph - N/A   Clear
3:35 PM 32.0 °F 25.6 °F 10.4 °F 41% 30.27 in 10.0 mi South 6.9 mph - N/A   Clear
3:55 PM 32.0 °F 23.6 °F 12.2 °F 44% 30.26 in 10.0 mi SE 10.4 mph - N/A   Clear
4:15 PM 32.0 °F 25.6 °F 12.2 °F 44% 30.26 in 10.0 mi South 6.9 mph - N/A   Clear
4:35 PM 32.0 °F 26.4 °F 12.2 °F 44% 30.26 in 10.0 mi SSE 5.8 mph - N/A   Clear
4:55 PM 32.0 °F 27.5 °F 12.2 °F 44% 30.25 in 10.0 mi South 4.6 mph - N/A   Clear
5:15 PM 30.2 °F 24.3 °F 12.2 °F 47% 30.25 in 10.0 mi South 5.8 mph - N/A   Clear
5:35 PM 30.2 °F 25.4 °F 12.2 °F 47% 30.23 in 10.0 mi South 4.6 mph - N/A   Clear
5:55 PM 28.4 °F 23.3 °F 12.2 °F 51% 30.23 in 10.0 mi South 4.6 mph - N/A   Clear
6:15 PM 28.4 °F 23.3 °F 12.2 °F 51% 30.23 in 10.0 mi SSE 4.6 mph - N/A   Clear
6:35 PM 26.6 °F 21.2 °F 12.2 °F 55% 30.23 in 10.0 mi SSE 4.6 mph - N/A   Clear
6:55 PM 28.4 °F 23.3 °F 12.2 °F 51% 30.23 in 10.0 mi South 4.6 mph - N/A   Clear
7:15 PM 28.4 °F 23.3 °F 12.2 °F 51% 30.23 in 10.0 mi South 4.6 mph - N/A   Clear
7:35 PM 28.4 °F 24.6 °F 12.2 °F 51% 30.23 in 10.0 mi South 3.5 mph - N/A   Clear
7:55 PM 28.4 °F - 12.2 °F 51% 30.23 in 10.0 mi Calm Calm - N/A   Clear
8:15 PM 26.6 °F 21.2 °F 12.2 °F 55% 30.23 in 10.0 mi South 4.6 mph - N/A   Clear
8:35 PM 26.6 °F 20.0 °F 12.2 °F 55% 30.23 in 10.0 mi South 5.8 mph - N/A   Clear
8:55 PM 26.6 °F 21.2 °F 12.2 °F 55% 30.23 in 10.0 mi SSW 4.6 mph - N/A   Clear
9:15 PM 26.6 °F 20.0 °F 12.2 °F 55% 30.22 in 10.0 mi SSW 5.8 mph - N/A   Clear
9:35 PM 26.6 °F 21.2 °F 12.2 °F 55% 30.23 in 10.0 mi SSW 4.6 mph - N/A   Clear
9:55 PM 28.4 °F - 12.2 °F 51% 30.22 in 10.0 mi Calm Calm - N/A   Clear
10:15 PM 28.4 °F 22.2 °F 12.2 °F 51% 30.22 in 10.0 mi SW 5.8 mph - N/A   Clear
10:35 PM 28.4 °F 22.2 °F 12.2 °F 51% 30.21 in 10.0 mi SSW 5.8 mph - N/A   Clear
10:55 PM 28.4 °F 21.2 °F 12.2 °F 51% 30.21 in 10.0 mi SW 6.9 mph - N/A   Clear
11:15 PM 28.4 °F 19.7 °F 12.2 °F 51% 30.20 in 10.0 mi SW 9.2 mph - N/A   Clear
11:35 PM 30.2 °F 24.3 °F 12.2 °F 47% 30.20 in 10.0 mi SW 5.8 mph - N/A   Clear
11:55 PM 28.4 °F 24.6 °F 12.2 °F 51% 30.19 in 10.0 mi WSW 3.5 mph - N/A   Clear